Data supplied by UK-AIR on 14/3/2017
All Data GMT hour ending 
Status: R =Ratified P=Provisional,P*=As supplied
,,London Harrow Stanmore,,,,,,,,,,,,,,,,,,,,,,,
Date,time,"Non-volatile PM<sub>2.5</sub> (Hourly measured)",status,unit,"PM<sub>2.5</sub> particulate matter (Hourly measured)",status,unit,"Volatile PM<sub>2.5</sub> (Hourly measured)",status,unit
 
01-01-2016,01:00,40.600,R,ugm-3 (TEOM FDMS),43.000,R,ugm-3 (TEOM FDMS),1.700,R,ugm-3 (TEOM FDMS)
01-01-2016,02:00,38.500,R,ugm-3 (TEOM FDMS),39.500,R,ugm-3 (TEOM FDMS),0.400,R,ugm-3 (TEOM FDMS)
01-01-2016,03:00,30.000,R,ugm-3 (TEOM FDMS),31.600,R,ugm-3 (TEOM FDMS),1.100,R,ugm-3 (TEOM FDMS)
01-01-2016,04:00,31.400,R,ugm-3 (TEOM FDMS),32.900,R,ugm-3 (TEOM FDMS),1.000,R,ugm-3 (TEOM FDMS)
01-01-2016,05:00,39.400,R,ugm-3 (TEOM FDMS),39.200,R,ugm-3 (TEOM FDMS),-0.800,R,ugm-3 (TEOM FDMS)
01-01-2016,06:00,23.500,R,ugm-3 (TEOM FDMS),25.600,R,ugm-3 (TEOM FDMS),1.700,R,ugm-3 (TEOM FDMS)
01-01-2016,07:00,14.500,R,ugm-3 (TEOM FDMS),15.700,R,ugm-3 (TEOM FDMS),1.000,R,ugm-3 (TEOM FDMS)
01-01-2016,08:00,13.000,R,ugm-3 (TEOM FDMS),15.600,R,ugm-3 (TEOM FDMS),2.400,R,ugm-3 (TEOM FDMS)
01-01-2016,09:00,14.800,R,ugm-3 (TEOM FDMS),18.100,R,ugm-3 (TEOM FDMS),3.100,R,ugm-3 (TEOM FDMS)
01-01-2016,10:00,8.600,R,ugm-3 (TEOM FDMS),12.200,R,ugm-3 (TEOM FDMS),3.400,R,ugm-3 (TEOM FDMS)
01-01-2016,11:00,5.800,R,ugm-3 (TEOM FDMS),8.800,R,ugm-3 (TEOM FDMS),2.900,R,ugm-3 (TEOM FDMS)
01-01-2016,12:00,3.500,R,ugm-3 (TEOM FDMS),7.400,R,ugm-3 (TEOM FDMS),3.700,R,ugm-3 (TEOM FDMS)
01-01-2016,13:00,6.200,R,ugm-3 (TEOM FDMS),7.600,R,ugm-3 (TEOM FDMS),1.300,R,ugm-3 (TEOM FDMS)
01-01-2016,14:00,4.400,R,ugm-3 (TEOM FDMS),7.300,R,ugm-3 (TEOM FDMS),2.800,R,ugm-3 (TEOM FDMS)
01-01-2016,15:00,5.900,R,ugm-3 (TEOM FDMS),9.100,R,ugm-3 (TEOM FDMS),3.100,R,ugm-3 (TEOM FDMS)
01-01-2016,16:00,4.100,R,ugm-3 (TEOM FDMS),7.300,R,ugm-3 (TEOM FDMS),3.100,R,ugm-3 (TEOM FDMS)
01-01-2016,17:00,3.700,R,ugm-3 (TEOM FDMS),7.700,R,ugm-3 (TEOM FDMS),3.800,R,ugm-3 (TEOM FDMS)
01-01-2016,18:00,4.200,R,ugm-3 (TEOM FDMS),7.800,R,ugm-3 (TEOM FDMS),3.400,R,ugm-3 (TEOM FDMS)
01-01-2016,19:00,5.300,R,ugm-3 (TEOM FDMS),7.800,R,ugm-3 (TEOM FDMS),2.400,R,ugm-3 (TEOM FDMS)
01-01-2016,20:00,4.600,R,ugm-3 (TEOM FDMS),10.100,R,ugm-3 (TEOM FDMS),5.300,R,ugm-3 (TEOM FDMS)
01-01-2016,21:00,2.500,R,ugm-3 (TEOM FDMS),4.700,R,ugm-3 (TEOM FDMS),2.200,R,ugm-3 (TEOM FDMS)
01-01-2016,22:00,2.700,R,ugm-3 (TEOM FDMS),5.800,R,ugm-3 (TEOM FDMS),3.100,R,ugm-3 (TEOM FDMS)
01-01-2016,23:00,4.100,R,ugm-3 (TEOM FDMS),8.300,R,ugm-3 (TEOM FDMS),4.000,R,ugm-3 (TEOM FDMS)
01-01-2016,24:00,3.900,R,ugm-3 (TEOM FDMS),7.700,R,ugm-3 (TEOM FDMS),3.600,R,ugm-3 (TEOM FDMS)
02-01-2016,01:00,2.100,R,ugm-3 (TEOM FDMS),8.200,R,ugm-3 (TEOM FDMS),6.000,R,ugm-3 (TEOM FDMS)
02-01-2016,02:00,2.500,R,ugm-3 (TEOM FDMS),4.000,R,ugm-3 (TEOM FDMS),1.500,R,ugm-3 (TEOM FDMS)
02-01-2016,03:00,2.700,R,ugm-3 (TEOM FDMS),5.200,R,ugm-3 (TEOM FDMS),2.500,R,ugm-3 (TEOM FDMS)
02-01-2016,04:00,2.100,R,ugm-3 (TEOM FDMS),5.200,R,ugm-3 (TEOM FDMS),3.100,R,ugm-3 (TEOM FDMS)
02-01-2016,05:00,3.500,R,ugm-3 (TEOM FDMS),5.000,R,ugm-3 (TEOM FDMS),1.400,R,ugm-3 (TEOM FDMS)
02-01-2016,06:00,4.100,R,ugm-3 (TEOM FDMS),6.900,R,ugm-3 (TEOM FDMS),2.700,R,ugm-3 (TEOM FDMS)
02-01-2016,07:00,4.700,R,ugm-3 (TEOM FDMS),9.100,R,ugm-3 (TEOM FDMS),4.200,R,ugm-3 (TEOM FDMS)
02-01-2016,08:00,3.100,R,ugm-3 (TEOM FDMS),6.400,R,ugm-3 (TEOM FDMS),3.100,R,ugm-3 (TEOM FDMS)
02-01-2016,09:00,4.100,R,ugm-3 (TEOM FDMS),4.400,R,ugm-3 (TEOM FDMS),0.200,R,ugm-3 (TEOM FDMS)
02-01-2016,10:00,1.400,R,ugm-3 (TEOM FDMS),2.700,R,ugm-3 (TEOM FDMS),1.300,R,ugm-3 (TEOM FDMS)
02-01-2016,11:00,0.700,R,ugm-3 (TEOM FDMS),2.900,R,ugm-3 (TEOM FDMS),2.200,R,ugm-3 (TEOM FDMS)
02-01-2016,12:00,2.700,R,ugm-3 (TEOM FDMS),6.900,R,ugm-3 (TEOM FDMS),4.100,R,ugm-3 (TEOM FDMS)
02-01-2016,13:00,2.200,R,ugm-3 (TEOM FDMS),4.300,R,ugm-3 (TEOM FDMS),2.100,R,ugm-3 (TEOM FDMS)
02-01-2016,14:00,-1.500,R,ugm-3 (TEOM FDMS),1.100,R,ugm-3 (TEOM FDMS),2.600,R,ugm-3 (TEOM FDMS)
02-01-2016,15:00,-0.400,R,ugm-3 (TEOM FDMS),0.700,R,ugm-3 (TEOM FDMS),1.100,R,ugm-3 (TEOM FDMS)
02-01-2016,16:00,1.600,R,ugm-3 (TEOM FDMS),0.900,R,ugm-3 (TEOM FDMS),-0.700,R,ugm-3 (TEOM FDMS)
02-01-2016,17:00,2.500,R,ugm-3 (TEOM FDMS),1.900,R,ugm-3 (TEOM FDMS),-0.600,R,ugm-3 (TEOM FDMS)
02-01-2016,18:00,2.800,R,ugm-3 (TEOM FDMS),4.400,R,ugm-3 (TEOM FDMS),1.600,R,ugm-3 (TEOM FDMS)
02-01-2016,19:00,5.000,R,ugm-3 (TEOM FDMS),5.000,R,ugm-3 (TEOM FDMS),-0.100,R,ugm-3 (TEOM FDMS)
02-01-2016,20:00,4.200,R,ugm-3 (TEOM FDMS),3.900,R,ugm-3 (TEOM FDMS),-0.400,R,ugm-3 (TEOM FDMS)
02-01-2016,21:00,2.600,R,ugm-3 (TEOM FDMS),2.000,R,ugm-3 (TEOM FDMS),-0.600,R,ugm-3 (TEOM FDMS)
02-01-2016,22:00,3.200,R,ugm-3 (TEOM FDMS),3.000,R,ugm-3 (TEOM FDMS),-0.300,R,ugm-3 (TEOM FDMS)
02-01-2016,23:00,5.300,R,ugm-3 (TEOM FDMS),6.200,R,ugm-3 (TEOM FDMS),0.800,R,ugm-3 (TEOM FDMS)
02-01-2016,24:00,4.100,R,ugm-3 (TEOM FDMS),4.600,R,ugm-3 (TEOM FDMS),0.400,R,ugm-3 (TEOM FDMS)
03-01-2016,01:00,3.500,R,ugm-3 (TEOM FDMS),6.100,R,ugm-3 (TEOM FDMS),2.500,R,ugm-3 (TEOM FDMS)
03-01-2016,02:00,1.000,R,ugm-3 (TEOM FDMS),2.900,R,ugm-3 (TEOM FDMS),1.900,R,ugm-3 (TEOM FDMS)
03-01-2016,03:00,0.500,R,ugm-3 (TEOM FDMS),2.200,R,ugm-3 (TEOM FDMS),1.700,R,ugm-3 (TEOM FDMS)
03-01-2016,04:00,-0.300,R,ugm-3 (TEOM FDMS),1.700,R,ugm-3 (TEOM FDMS),2.000,R,ugm-3 (TEOM FDMS)
03-01-2016,05:00,-0.500,R,ugm-3 (TEOM FDMS),3.100,R,ugm-3 (TEOM FDMS),3.500,R,ugm-3 (TEOM FDMS)
03-01-2016,06:00,1.200,R,ugm-3 (TEOM FDMS),3.700,R,ugm-3 (TEOM FDMS),2.500,R,ugm-3 (TEOM FDMS)
03-01-2016,07:00,1.300,R,ugm-3 (TEOM FDMS),4.700,R,ugm-3 (TEOM FDMS),3.300,R,ugm-3 (TEOM FDMS)
03-01-2016,08:00,-0.200,R,ugm-3 (TEOM FDMS),2.600,R,ugm-3 (TEOM FDMS),2.800,R,ugm-3 (TEOM FDMS)
03-01-2016,09:00,1.400,R,ugm-3 (TEOM FDMS),4.300,R,ugm-3 (TEOM FDMS),2.900,R,ugm-3 (TEOM FDMS)
03-01-2016,10:00,-0.900,R,ugm-3 (TEOM FDMS),2.800,R,ugm-3 (TEOM FDMS),3.600,R,ugm-3 (TEOM FDMS)
03-01-2016,11:00,-1.200,R,ugm-3 (TEOM FDMS),4.300,R,ugm-3 (TEOM FDMS),5.400,R,ugm-3 (TEOM FDMS)
03-01-2016,12:00,-3.100,R,ugm-3 (TEOM FDMS),1.400,R,ugm-3 (TEOM FDMS),4.400,R,ugm-3 (TEOM FDMS)
03-01-2016,13:00,-2.900,R,ugm-3 (TEOM FDMS),0.900,R,ugm-3 (TEOM FDMS),3.700,R,ugm-3 (TEOM FDMS)
03-01-2016,14:00,-1.300,R,ugm-3 (TEOM FDMS),1.800,R,ugm-3 (TEOM FDMS),3.100,R,ugm-3 (TEOM FDMS)
03-01-2016,15:00,1.300,R,ugm-3 (TEOM FDMS),3.400,R,ugm-3 (TEOM FDMS),2.100,R,ugm-3 (TEOM FDMS)
03-01-2016,16:00,0.800,R,ugm-3 (TEOM FDMS),2.200,R,ugm-3 (TEOM FDMS),1.400,R,ugm-3 (TEOM FDMS)
03-01-2016,17:00,3.400,R,ugm-3 (TEOM FDMS),3.900,R,ugm-3 (TEOM FDMS),0.400,R,ugm-3 (TEOM FDMS)
03-01-2016,18:00,3.800,R,ugm-3 (TEOM FDMS),6.800,R,ugm-3 (TEOM FDMS),2.900,R,ugm-3 (TEOM FDMS)
03-01-2016,19:00,5.000,R,ugm-3 (TEOM FDMS),7.100,R,ugm-3 (TEOM FDMS),2.000,R,ugm-3 (TEOM FDMS)
03-01-2016,20:00,6.400,R,ugm-3 (TEOM FDMS),8.000,R,ugm-3 (TEOM FDMS),1.500,R,ugm-3 (TEOM FDMS)
03-01-2016,21:00,10.400,R,ugm-3 (TEOM FDMS),11.300,R,ugm-3 (TEOM FDMS),0.700,R,ugm-3 (TEOM FDMS)
03-01-2016,22:00,11.500,R,ugm-3 (TEOM FDMS),15.000,R,ugm-3 (TEOM FDMS),3.200,R,ugm-3 (TEOM FDMS)
03-01-2016,23:00,10.000,R,ugm-3 (TEOM FDMS),13.700,R,ugm-3 (TEOM FDMS),3.400,R,ugm-3 (TEOM FDMS)
03-01-2016,24:00,8.700,R,ugm-3 (TEOM FDMS),11.800,R,ugm-3 (TEOM FDMS),3.000,R,ugm-3 (TEOM FDMS)
04-01-2016,01:00,7.300,R,ugm-3 (TEOM FDMS),8.700,R,ugm-3 (TEOM FDMS),1.300,R,ugm-3 (TEOM FDMS)
04-01-2016,02:00,7.800,R,ugm-3 (TEOM FDMS),9.600,R,ugm-3 (TEOM FDMS),1.700,R,ugm-3 (TEOM FDMS)
04-01-2016,03:00,4.500,R,ugm-3 (TEOM FDMS),5.900,R,ugm-3 (TEOM FDMS),1.300,R,ugm-3 (TEOM FDMS)
04-01-2016,04:00,3.100,R,ugm-3 (TEOM FDMS),6.200,R,ugm-3 (TEOM FDMS),3.000,R,ugm-3 (TEOM FDMS)
04-01-2016,05:00,1.600,R,ugm-3 (TEOM FDMS),4.000,R,ugm-3 (TEOM FDMS),2.400,R,ugm-3 (TEOM FDMS)
04-01-2016,06:00,0.200,R,ugm-3 (TEOM FDMS),1.900,R,ugm-3 (TEOM FDMS),1.700,R,ugm-3 (TEOM FDMS)
04-01-2016,07:00,2.200,R,ugm-3 (TEOM FDMS),3.500,R,ugm-3 (TEOM FDMS),1.300,R,ugm-3 (TEOM FDMS)
04-01-2016,08:00,4.000,R,ugm-3 (TEOM FDMS),5.900,R,ugm-3 (TEOM FDMS),1.800,R,ugm-3 (TEOM FDMS)
04-01-2016,09:00,6.500,R,ugm-3 (TEOM FDMS),8.900,R,ugm-3 (TEOM FDMS),2.300,R,ugm-3 (TEOM FDMS)
04-01-2016,10:00,6.500,R,ugm-3 (TEOM FDMS),6.700,R,ugm-3 (TEOM FDMS),0.100,R,ugm-3 (TEOM FDMS)
04-01-2016,11:00,4.300,R,ugm-3 (TEOM FDMS),6.100,R,ugm-3 (TEOM FDMS),1.700,R,ugm-3 (TEOM FDMS)
04-01-2016,12:00,2.000,R,ugm-3 (TEOM FDMS),1.100,R,ugm-3 (TEOM FDMS),-0.900,R,ugm-3 (TEOM FDMS)
04-01-2016,13:00,3.700,R,ugm-3 (TEOM FDMS),5.000,R,ugm-3 (TEOM FDMS),1.200,R,ugm-3 (TEOM FDMS)
04-01-2016,14:00,6.100,R,ugm-3 (TEOM FDMS),8.800,R,ugm-3 (TEOM FDMS),2.600,R,ugm-3 (TEOM FDMS)
04-01-2016,15:00,6.200,R,ugm-3 (TEOM FDMS),8.700,R,ugm-3 (TEOM FDMS),2.400,R,ugm-3 (TEOM FDMS)
04-01-2016,16:00,6.500,R,ugm-3 (TEOM FDMS),9.100,R,ugm-3 (TEOM FDMS),2.500,R,ugm-3 (TEOM FDMS)
04-01-2016,17:00,4.600,R,ugm-3 (TEOM FDMS),4.900,R,ugm-3 (TEOM FDMS),0.200,R,ugm-3 (TEOM FDMS)
04-01-2016,18:00,6.800,R,ugm-3 (TEOM FDMS),7.800,R,ugm-3 (TEOM FDMS),0.900,R,ugm-3 (TEOM FDMS)
04-01-2016,19:00,5.400,R,ugm-3 (TEOM FDMS),6.200,R,ugm-3 (TEOM FDMS),0.700,R,ugm-3 (TEOM FDMS)
04-01-2016,20:00,5.400,R,ugm-3 (TEOM FDMS),7.100,R,ugm-3 (TEOM FDMS),1.600,R,ugm-3 (TEOM FDMS)
04-01-2016,21:00,4.400,R,ugm-3 (TEOM FDMS),7.200,R,ugm-3 (TEOM FDMS),2.700,R,ugm-3 (TEOM FDMS)
04-01-2016,22:00,4.700,R,ugm-3 (TEOM FDMS),7.400,R,ugm-3 (TEOM FDMS),2.600,R,ugm-3 (TEOM FDMS)
04-01-2016,23:00,3.100,R,ugm-3 (TEOM FDMS),5.500,R,ugm-3 (TEOM FDMS),2.400,R,ugm-3 (TEOM FDMS)
04-01-2016,24:00,3.400,R,ugm-3 (TEOM FDMS),6.700,R,ugm-3 (TEOM FDMS),3.100,R,ugm-3 (TEOM FDMS)
05-01-2016,01:00,2.900,R,ugm-3 (TEOM FDMS),3.000,R,ugm-3 (TEOM FDMS),0.100,R,ugm-3 (TEOM FDMS)
05-01-2016,02:00,1.600,R,ugm-3 (TEOM FDMS),2.900,R,ugm-3 (TEOM FDMS),1.300,R,ugm-3 (TEOM FDMS)
05-01-2016,03:00,1.400,R,ugm-3 (TEOM FDMS),2.200,R,ugm-3 (TEOM FDMS),0.800,R,ugm-3 (TEOM FDMS)
05-01-2016,04:00,0.700,R,ugm-3 (TEOM FDMS),1.300,R,ugm-3 (TEOM FDMS),0.600,R,ugm-3 (TEOM FDMS)
05-01-2016,05:00,2.100,R,ugm-3 (TEOM FDMS),3.200,R,ugm-3 (TEOM FDMS),1.100,R,ugm-3 (TEOM FDMS)
05-01-2016,06:00,2.400,R,ugm-3 (TEOM FDMS),3.200,R,ugm-3 (TEOM FDMS),0.800,R,ugm-3 (TEOM FDMS)
05-01-2016,07:00,3.900,R,ugm-3 (TEOM FDMS),5.100,R,ugm-3 (TEOM FDMS),1.100,R,ugm-3 (TEOM FDMS)
05-01-2016,08:00,5.100,R,ugm-3 (TEOM FDMS),7.300,R,ugm-3 (TEOM FDMS),2.100,R,ugm-3 (TEOM FDMS)
05-01-2016,09:00,8.400,R,ugm-3 (TEOM FDMS),9.100,R,ugm-3 (TEOM FDMS),0.600,R,ugm-3 (TEOM FDMS)
05-01-2016,10:00,10.600,R,ugm-3 (TEOM FDMS),11.400,R,ugm-3 (TEOM FDMS),0.600,R,ugm-3 (TEOM FDMS)
05-01-2016,11:00,11.500,R,ugm-3 (TEOM FDMS),12.600,R,ugm-3 (TEOM FDMS),0.900,R,ugm-3 (TEOM FDMS)
05-01-2016,12:00,7.900,R,ugm-3 (TEOM FDMS),10.100,R,ugm-3 (TEOM FDMS),2.100,R,ugm-3 (TEOM FDMS)
05-01-2016,13:00,7.400,R,ugm-3 (TEOM FDMS),8.400,R,ugm-3 (TEOM FDMS),0.900,R,ugm-3 (TEOM FDMS)
05-01-2016,14:00,9.400,R,ugm-3 (TEOM FDMS),11.700,R,ugm-3 (TEOM FDMS),2.100,R,ugm-3 (TEOM FDMS)
05-01-2016,15:00,7.100,R,ugm-3 (TEOM FDMS),7.700,R,ugm-3 (TEOM FDMS),0.500,R,ugm-3 (TEOM FDMS)
05-01-2016,16:00,6.000,R,ugm-3 (TEOM FDMS),7.000,R,ugm-3 (TEOM FDMS),0.900,R,ugm-3 (TEOM FDMS)
05-01-2016,17:00,8.800,R,ugm-3 (TEOM FDMS),8.700,R,ugm-3 (TEOM FDMS),-0.200,R,ugm-3 (TEOM FDMS)
05-01-2016,18:00,12.300,R,ugm-3 (TEOM FDMS),13.200,R,ugm-3 (TEOM FDMS),0.700,R,ugm-3 (TEOM FDMS)
05-01-2016,19:00,15.300,R,ugm-3 (TEOM FDMS),17.200,R,ugm-3 (TEOM FDMS),1.700,R,ugm-3 (TEOM FDMS)
05-01-2016,20:00,12.700,R,ugm-3 (TEOM FDMS),14.400,R,ugm-3 (TEOM FDMS),1.500,R,ugm-3 (TEOM FDMS)
05-01-2016,21:00,13.600,R,ugm-3 (TEOM FDMS),14.900,R,ugm-3 (TEOM FDMS),1.100,R,ugm-3 (TEOM FDMS)
05-01-2016,22:00,15.000,R,ugm-3 (TEOM FDMS),15.700,R,ugm-3 (TEOM FDMS),0.500,R,ugm-3 (TEOM FDMS)
05-01-2016,23:00,16.000,R,ugm-3 (TEOM FDMS),18.900,R,ugm-3 (TEOM FDMS),2.600,R,ugm-3 (TEOM FDMS)
05-01-2016,24:00,16.000,R,ugm-3 (TEOM FDMS),19.200,R,ugm-3 (TEOM FDMS),2.900,R,ugm-3 (TEOM FDMS)
06-01-2016,01:00,17.000,R,ugm-3 (TEOM FDMS),20.300,R,ugm-3 (TEOM FDMS),3.000,R,ugm-3 (TEOM FDMS)
06-01-2016,02:00,14.800,R,ugm-3 (TEOM FDMS),17.400,R,ugm-3 (TEOM FDMS),2.400,R,ugm-3 (TEOM FDMS)
06-01-2016,03:00,13.900,R,ugm-3 (TEOM FDMS),16.200,R,ugm-3 (TEOM FDMS),2.100,R,ugm-3 (TEOM FDMS)
06-01-2016,04:00,13.300,R,ugm-3 (TEOM FDMS),16.800,R,ugm-3 (TEOM FDMS),3.200,R,ugm-3 (TEOM FDMS)
06-01-2016,05:00,11.600,R,ugm-3 (TEOM FDMS),14.900,R,ugm-3 (TEOM FDMS),3.100,R,ugm-3 (TEOM FDMS)
06-01-2016,06:00,11.500,R,ugm-3 (TEOM FDMS),13.300,R,ugm-3 (TEOM FDMS),1.600,R,ugm-3 (TEOM FDMS)
06-01-2016,07:00,14.900,R,ugm-3 (TEOM FDMS),16.300,R,ugm-3 (TEOM FDMS),1.200,R,ugm-3 (TEOM FDMS)
06-01-2016,08:00,16.900,R,ugm-3 (TEOM FDMS),19.800,R,ugm-3 (TEOM FDMS),2.600,R,ugm-3 (TEOM FDMS)
06-01-2016,09:00,14.200,R,ugm-3 (TEOM FDMS),16.200,R,ugm-3 (TEOM FDMS),1.800,R,ugm-3 (TEOM FDMS)
06-01-2016,10:00,11.700,R,ugm-3 (TEOM FDMS),14.200,R,ugm-3 (TEOM FDMS),2.300,R,ugm-3 (TEOM FDMS)
06-01-2016,11:00,11.700,R,ugm-3 (TEOM FDMS),12.500,R,ugm-3 (TEOM FDMS),0.600,R,ugm-3 (TEOM FDMS)
06-01-2016,12:00,14.500,R,ugm-3 (TEOM FDMS),18.500,R,ugm-3 (TEOM FDMS),3.700,R,ugm-3 (TEOM FDMS)
06-01-2016,13:00,17.200,R,ugm-3 (TEOM FDMS),21.600,R,ugm-3 (TEOM FDMS),4.000,R,ugm-3 (TEOM FDMS)
06-01-2016,14:00,11.900,R,ugm-3 (TEOM FDMS),15.700,R,ugm-3 (TEOM FDMS),3.500,R,ugm-3 (TEOM FDMS)
06-01-2016,15:00,10.100,R,ugm-3 (TEOM FDMS),14.200,R,ugm-3 (TEOM FDMS),3.800,R,ugm-3 (TEOM FDMS)
06-01-2016,16:00,12.700,R,ugm-3 (TEOM FDMS),16.700,R,ugm-3 (TEOM FDMS),3.700,R,ugm-3 (TEOM FDMS)
06-01-2016,17:00,13.700,R,ugm-3 (TEOM FDMS),17.900,R,ugm-3 (TEOM FDMS),3.900,R,ugm-3 (TEOM FDMS)
06-01-2016,18:00,19.900,R,ugm-3 (TEOM FDMS),27.200,R,ugm-3 (TEOM FDMS),6.900,R,ugm-3 (TEOM FDMS)
06-01-2016,19:00,20.100,R,ugm-3 (TEOM FDMS),26.700,R,ugm-3 (TEOM FDMS),6.200,R,ugm-3 (TEOM FDMS)
06-01-2016,20:00,19.200,R,ugm-3 (TEOM FDMS),24.000,R,ugm-3 (TEOM FDMS),4.400,R,ugm-3 (TEOM FDMS)
06-01-2016,21:00,18.500,R,ugm-3 (TEOM FDMS),24.300,R,ugm-3 (TEOM FDMS),5.400,R,ugm-3 (TEOM FDMS)
06-01-2016,22:00,18.700,R,ugm-3 (TEOM FDMS),23.900,R,ugm-3 (TEOM FDMS),4.800,R,ugm-3 (TEOM FDMS)
06-01-2016,23:00,17.700,R,ugm-3 (TEOM FDMS),25.500,R,ugm-3 (TEOM FDMS),7.400,R,ugm-3 (TEOM FDMS)
06-01-2016,24:00,10.900,R,ugm-3 (TEOM FDMS),19.300,R,ugm-3 (TEOM FDMS),8.100,R,ugm-3 (TEOM FDMS)
07-01-2016,01:00,8.300,R,ugm-3 (TEOM FDMS),17.700,R,ugm-3 (TEOM FDMS),9.200,R,ugm-3 (TEOM FDMS)
07-01-2016,02:00,4.100,R,ugm-3 (TEOM FDMS),10.700,R,ugm-3 (TEOM FDMS),6.400,R,ugm-3 (TEOM FDMS)
07-01-2016,03:00,0.000,R,ugm-3 (TEOM FDMS),7.400,R,ugm-3 (TEOM FDMS),7.300,R,ugm-3 (TEOM FDMS)
07-01-2016,04:00,-2.200,R,ugm-3 (TEOM FDMS),2.500,R,ugm-3 (TEOM FDMS),4.600,R,ugm-3 (TEOM FDMS)
07-01-2016,05:00,-0.900,R,ugm-3 (TEOM FDMS),2.600,R,ugm-3 (TEOM FDMS),3.400,R,ugm-3 (TEOM FDMS)
07-01-2016,06:00,-3.900,R,ugm-3 (TEOM FDMS),-0.200,R,ugm-3 (TEOM FDMS),3.700,R,ugm-3 (TEOM FDMS)
07-01-2016,07:00,-3.200,R,ugm-3 (TEOM FDMS),0.200,R,ugm-3 (TEOM FDMS),3.400,R,ugm-3 (TEOM FDMS)
07-01-2016,08:00,0.000,R,ugm-3 (TEOM FDMS),3.100,R,ugm-3 (TEOM FDMS),3.100,R,ugm-3 (TEOM FDMS)
07-01-2016,09:00,1.200,R,ugm-3 (TEOM FDMS),3.500,R,ugm-3 (TEOM FDMS),2.300,R,ugm-3 (TEOM FDMS)
07-01-2016,10:00,3.000,R,ugm-3 (TEOM FDMS),3.200,R,ugm-3 (TEOM FDMS),0.200,R,ugm-3 (TEOM FDMS)
07-01-2016,11:00,3.100,R,ugm-3 (TEOM FDMS),3.500,R,ugm-3 (TEOM FDMS),0.300,R,ugm-3 (TEOM FDMS)
07-01-2016,12:00,6.100,R,ugm-3 (TEOM FDMS),6.100,R,ugm-3 (TEOM FDMS),-0.100,R,ugm-3 (TEOM FDMS)
07-01-2016,13:00,3.300,R,ugm-3 (TEOM FDMS),1.100,R,ugm-3 (TEOM FDMS),-2.300,R,ugm-3 (TEOM FDMS)
07-01-2016,14:00,2.000,R,ugm-3 (TEOM FDMS),1.000,R,ugm-3 (TEOM FDMS),-1.000,R,ugm-3 (TEOM FDMS)
07-01-2016,15:00,3.500,R,ugm-3 (TEOM FDMS),3.100,R,ugm-3 (TEOM FDMS),-0.500,R,ugm-3 (TEOM FDMS)
07-01-2016,16:00,3.000,R,ugm-3 (TEOM FDMS),3.200,R,ugm-3 (TEOM FDMS),0.200,R,ugm-3 (TEOM FDMS)
07-01-2016,17:00,4.900,R,ugm-3 (TEOM FDMS),6.900,R,ugm-3 (TEOM FDMS),1.900,R,ugm-3 (TEOM FDMS)
07-01-2016,18:00,4.100,R,ugm-3 (TEOM FDMS),5.700,R,ugm-3 (TEOM FDMS),1.500,R,ugm-3 (TEOM FDMS)
07-01-2016,19:00,3.700,R,ugm-3 (TEOM FDMS),4.300,R,ugm-3 (TEOM FDMS),0.500,R,ugm-3 (TEOM FDMS)
07-01-2016,20:00,5.300,R,ugm-3 (TEOM FDMS),3.800,R,ugm-3 (TEOM FDMS),-1.600,R,ugm-3 (TEOM FDMS)
07-01-2016,21:00,3.800,R,ugm-3 (TEOM FDMS),4.100,R,ugm-3 (TEOM FDMS),0.200,R,ugm-3 (TEOM FDMS)
07-01-2016,22:00,4.400,R,ugm-3 (TEOM FDMS),3.300,R,ugm-3 (TEOM FDMS),-1.200,R,ugm-3 (TEOM FDMS)
07-01-2016,23:00,5.500,R,ugm-3 (TEOM FDMS),6.300,R,ugm-3 (TEOM FDMS),0.700,R,ugm-3 (TEOM FDMS)
07-01-2016,24:00,6.100,R,ugm-3 (TEOM FDMS),5.900,R,ugm-3 (TEOM FDMS),-0.300,R,ugm-3 (TEOM FDMS)
08-01-2016,01:00,5.600,R,ugm-3 (TEOM FDMS),7.200,R,ugm-3 (TEOM FDMS),1.500,R,ugm-3 (TEOM FDMS)
08-01-2016,02:00,4.900,R,ugm-3 (TEOM FDMS),5.400,R,ugm-3 (TEOM FDMS),0.400,R,ugm-3 (TEOM FDMS)
08-01-2016,03:00,5.900,R,ugm-3 (TEOM FDMS),7.200,R,ugm-3 (TEOM FDMS),1.200,R,ugm-3 (TEOM FDMS)
08-01-2016,04:00,4.500,R,ugm-3 (TEOM FDMS),6.100,R,ugm-3 (TEOM FDMS),1.500,R,ugm-3 (TEOM FDMS)
08-01-2016,05:00,5.700,R,ugm-3 (TEOM FDMS),8.400,R,ugm-3 (TEOM FDMS),2.600,R,ugm-3 (TEOM FDMS)
08-01-2016,06:00,4.400,R,ugm-3 (TEOM FDMS),5.800,R,ugm-3 (TEOM FDMS),1.300,R,ugm-3 (TEOM FDMS)
08-01-2016,07:00,4.200,R,ugm-3 (TEOM FDMS),6.300,R,ugm-3 (TEOM FDMS),2.000,R,ugm-3 (TEOM FDMS)
08-01-2016,08:00,7.400,R,ugm-3 (TEOM FDMS),8.600,R,ugm-3 (TEOM FDMS),1.100,R,ugm-3 (TEOM FDMS)
08-01-2016,09:00,9.800,R,ugm-3 (TEOM FDMS),12.700,R,ugm-3 (TEOM FDMS),2.700,R,ugm-3 (TEOM FDMS)
08-01-2016,10:00,7.600,R,ugm-3 (TEOM FDMS),7.700,R,ugm-3 (TEOM FDMS),0.000,R,ugm-3 (TEOM FDMS)
08-01-2016,11:00,3.500,R,ugm-3 (TEOM FDMS),4.600,R,ugm-3 (TEOM FDMS),1.000,R,ugm-3 (TEOM FDMS)
08-01-2016,12:00,5.100,R,ugm-3 (TEOM FDMS),8.200,R,ugm-3 (TEOM FDMS),3.000,R,ugm-3 (TEOM FDMS)
08-01-2016,13:00,4.300,R,ugm-3 (TEOM FDMS),6.100,R,ugm-3 (TEOM FDMS),1.700,R,ugm-3 (TEOM FDMS)
08-01-2016,14:00,5.700,R,ugm-3 (TEOM FDMS),6.900,R,ugm-3 (TEOM FDMS),1.100,R,ugm-3 (TEOM FDMS)
08-01-2016,15:00,4.000,R,ugm-3 (TEOM FDMS),6.200,R,ugm-3 (TEOM FDMS),2.100,R,ugm-3 (TEOM FDMS)
08-01-2016,16:00,3.300,R,ugm-3 (TEOM FDMS),5.100,R,ugm-3 (TEOM FDMS),1.700,R,ugm-3 (TEOM FDMS)
08-01-2016,17:00,7.800,R,ugm-3 (TEOM FDMS),9.900,R,ugm-3 (TEOM FDMS),2.000,R,ugm-3 (TEOM FDMS)
08-01-2016,18:00,7.400,R,ugm-3 (TEOM FDMS),9.100,R,ugm-3 (TEOM FDMS),1.600,R,ugm-3 (TEOM FDMS)
08-01-2016,19:00,6.000,R,ugm-3 (TEOM FDMS),7.600,R,ugm-3 (TEOM FDMS),1.500,R,ugm-3 (TEOM FDMS)
08-01-2016,20:00,7.400,R,ugm-3 (TEOM FDMS),9.800,R,ugm-3 (TEOM FDMS),2.300,R,ugm-3 (TEOM FDMS)
08-01-2016,21:00,6.200,R,ugm-3 (TEOM FDMS),6.800,R,ugm-3 (TEOM FDMS),0.500,R,ugm-3 (TEOM FDMS)
08-01-2016,22:00,7.100,R,ugm-3 (TEOM FDMS),9.100,R,ugm-3 (TEOM FDMS),1.900,R,ugm-3 (TEOM FDMS)
08-01-2016,23:00,6.700,R,ugm-3 (TEOM FDMS),7.800,R,ugm-3 (TEOM FDMS),1.000,R,ugm-3 (TEOM FDMS)
08-01-2016,24:00,9.200,R,ugm-3 (TEOM FDMS),12.000,R,ugm-3 (TEOM FDMS),2.700,R,ugm-3 (TEOM FDMS)
09-01-2016,01:00,3.300,R,ugm-3 (TEOM FDMS),5.100,R,ugm-3 (TEOM FDMS),1.700,R,ugm-3 (TEOM FDMS)
09-01-2016,02:00,2.200,R,ugm-3 (TEOM FDMS),4.800,R,ugm-3 (TEOM FDMS),2.600,R,ugm-3 (TEOM FDMS)
09-01-2016,03:00,1.200,R,ugm-3 (TEOM FDMS),4.900,R,ugm-3 (TEOM FDMS),3.600,R,ugm-3 (TEOM FDMS)
09-01-2016,04:00,1.300,R,ugm-3 (TEOM FDMS),3.500,R,ugm-3 (TEOM FDMS),2.200,R,ugm-3 (TEOM FDMS)
09-01-2016,05:00,0.800,R,ugm-3 (TEOM FDMS),3.600,R,ugm-3 (TEOM FDMS),2.800,R,ugm-3 (TEOM FDMS)
09-01-2016,06:00,1.400,R,ugm-3 (TEOM FDMS),3.600,R,ugm-3 (TEOM FDMS),2.200,R,ugm-3 (TEOM FDMS)
09-01-2016,07:00,3.100,R,ugm-3 (TEOM FDMS),5.900,R,ugm-3 (TEOM FDMS),2.800,R,ugm-3 (TEOM FDMS)
09-01-2016,08:00,3.700,R,ugm-3 (TEOM FDMS),6.700,R,ugm-3 (TEOM FDMS),2.900,R,ugm-3 (TEOM FDMS)
09-01-2016,09:00,3.100,R,ugm-3 (TEOM FDMS),3.100,R,ugm-3 (TEOM FDMS),0.000,R,ugm-3 (TEOM FDMS)
09-01-2016,10:00,2.900,R,ugm-3 (TEOM FDMS),4.900,R,ugm-3 (TEOM FDMS),2.000,R,ugm-3 (TEOM FDMS)
09-01-2016,11:00,3.400,R,ugm-3 (TEOM FDMS),6.900,R,ugm-3 (TEOM FDMS),3.300,R,ugm-3 (TEOM FDMS)
09-01-2016,12:00,1.600,R,ugm-3 (TEOM FDMS),4.100,R,ugm-3 (TEOM FDMS),2.500,R,ugm-3 (TEOM FDMS)
09-01-2016,13:00,1.300,R,ugm-3 (TEOM FDMS),2.300,R,ugm-3 (TEOM FDMS),1.000,R,ugm-3 (TEOM FDMS)
09-01-2016,14:00,2.100,R,ugm-3 (TEOM FDMS),4.400,R,ugm-3 (TEOM FDMS),2.300,R,ugm-3 (TEOM FDMS)
09-01-2016,15:00,0.900,R,ugm-3 (TEOM FDMS),2.600,R,ugm-3 (TEOM FDMS),1.700,R,ugm-3 (TEOM FDMS)
09-01-2016,16:00,0.900,R,ugm-3 (TEOM FDMS),4.200,R,ugm-3 (TEOM FDMS),3.200,R,ugm-3 (TEOM FDMS)
09-01-2016,17:00,0.300,R,ugm-3 (TEOM FDMS),4.900,R,ugm-3 (TEOM FDMS),4.500,R,ugm-3 (TEOM FDMS)
09-01-2016,18:00,1.500,R,ugm-3 (TEOM FDMS),5.300,R,ugm-3 (TEOM FDMS),3.700,R,ugm-3 (TEOM FDMS)
09-01-2016,19:00,1.000,R,ugm-3 (TEOM FDMS),2.800,R,ugm-3 (TEOM FDMS),1.800,R,ugm-3 (TEOM FDMS)
09-01-2016,20:00,2.200,R,ugm-3 (TEOM FDMS),6.000,R,ugm-3 (TEOM FDMS),3.700,R,ugm-3 (TEOM FDMS)
09-01-2016,21:00,3.600,R,ugm-3 (TEOM FDMS),6.500,R,ugm-3 (TEOM FDMS),2.800,R,ugm-3 (TEOM FDMS)
09-01-2016,22:00,-2.200,R,ugm-3 (TEOM FDMS),-0.900,R,ugm-3 (TEOM FDMS),1.300,R,ugm-3 (TEOM FDMS)
09-01-2016,23:00,2.100,R,ugm-3 (TEOM FDMS),3.600,R,ugm-3 (TEOM FDMS),1.500,R,ugm-3 (TEOM FDMS)
09-01-2016,24:00,1.700,R,ugm-3 (TEOM FDMS),3.400,R,ugm-3 (TEOM FDMS),1.700,R,ugm-3 (TEOM FDMS)
10-01-2016,01:00,1.200,R,ugm-3 (TEOM FDMS),4.000,R,ugm-3 (TEOM FDMS),2.800,R,ugm-3 (TEOM FDMS)
10-01-2016,02:00,1.000,R,ugm-3 (TEOM FDMS),2.500,R,ugm-3 (TEOM FDMS),1.500,R,ugm-3 (TEOM FDMS)
10-01-2016,03:00,0.500,R,ugm-3 (TEOM FDMS),1.600,R,ugm-3 (TEOM FDMS),1.100,R,ugm-3 (TEOM FDMS)
10-01-2016,04:00,2.700,R,ugm-3 (TEOM FDMS),4.700,R,ugm-3 (TEOM FDMS),2.000,R,ugm-3 (TEOM FDMS)
10-01-2016,05:00,2.900,R,ugm-3 (TEOM FDMS),3.200,R,ugm-3 (TEOM FDMS),0.300,R,ugm-3 (TEOM FDMS)
10-01-2016,06:00,5.000,R,ugm-3 (TEOM FDMS),7.300,R,ugm-3 (TEOM FDMS),2.200,R,ugm-3 (TEOM FDMS)
10-01-2016,07:00,3.000,R,ugm-3 (TEOM FDMS),3.300,R,ugm-3 (TEOM FDMS),0.300,R,ugm-3 (TEOM FDMS)
10-01-2016,08:00,2.500,R,ugm-3 (TEOM FDMS),2.100,R,ugm-3 (TEOM FDMS),-0.400,R,ugm-3 (TEOM FDMS)
10-01-2016,09:00,2.300,R,ugm-3 (TEOM FDMS),0.100,R,ugm-3 (TEOM FDMS),-2.200,R,ugm-3 (TEOM FDMS)
10-01-2016,10:00,3.100,R,ugm-3 (TEOM FDMS),2.600,R,ugm-3 (TEOM FDMS),-0.500,R,ugm-3 (TEOM FDMS)
10-01-2016,11:00,3.400,R,ugm-3 (TEOM FDMS),3.300,R,ugm-3 (TEOM FDMS),-0.200,R,ugm-3 (TEOM FDMS)
10-01-2016,12:00,3.700,R,ugm-3 (TEOM FDMS),4.800,R,ugm-3 (TEOM FDMS),1.000,R,ugm-3 (TEOM FDMS)
10-01-2016,13:00,4.500,R,ugm-3 (TEOM FDMS),8.700,R,ugm-3 (TEOM FDMS),4.000,R,ugm-3 (TEOM FDMS)
10-01-2016,14:00,2.500,R,ugm-3 (TEOM FDMS),3.000,R,ugm-3 (TEOM FDMS),0.500,R,ugm-3 (TEOM FDMS)
10-01-2016,15:00,4.300,R,ugm-3 (TEOM FDMS),6.400,R,ugm-3 (TEOM FDMS),2.000,R,ugm-3 (TEOM FDMS)
10-01-2016,16:00,3.600,R,ugm-3 (TEOM FDMS),4.600,R,ugm-3 (TEOM FDMS),0.900,R,ugm-3 (TEOM FDMS)
10-01-2016,17:00,5.000,R,ugm-3 (TEOM FDMS),7.400,R,ugm-3 (TEOM FDMS),2.300,R,ugm-3 (TEOM FDMS)
10-01-2016,18:00,5.400,R,ugm-3 (TEOM FDMS),5.600,R,ugm-3 (TEOM FDMS),0.100,R,ugm-3 (TEOM FDMS)
10-01-2016,19:00,5.600,R,ugm-3 (TEOM FDMS),6.500,R,ugm-3 (TEOM FDMS),0.800,R,ugm-3 (TEOM FDMS)
10-01-2016,20:00,7.200,R,ugm-3 (TEOM FDMS),7.700,R,ugm-3 (TEOM FDMS),0.400,R,ugm-3 (TEOM FDMS)
10-01-2016,21:00,5.000,R,ugm-3 (TEOM FDMS),6.200,R,ugm-3 (TEOM FDMS),1.100,R,ugm-3 (TEOM FDMS)
10-01-2016,22:00,8.100,R,ugm-3 (TEOM FDMS),10.400,R,ugm-3 (TEOM FDMS),2.200,R,ugm-3 (TEOM FDMS)
10-01-2016,23:00,7.300,R,ugm-3 (TEOM FDMS),9.000,R,ugm-3 (TEOM FDMS),1.600,R,ugm-3 (TEOM FDMS)
10-01-2016,24:00,3.000,R,ugm-3 (TEOM FDMS),5.500,R,ugm-3 (TEOM FDMS),2.500,R,ugm-3 (TEOM FDMS)
11-01-2016,01:00,1.100,R,ugm-3 (TEOM FDMS),4.600,R,ugm-3 (TEOM FDMS),3.400,R,ugm-3 (TEOM FDMS)
11-01-2016,02:00,-0.100,R,ugm-3 (TEOM FDMS),3.600,R,ugm-3 (TEOM FDMS),3.600,R,ugm-3 (TEOM FDMS)
11-01-2016,03:00,0.600,R,ugm-3 (TEOM FDMS),4.200,R,ugm-3 (TEOM FDMS),3.500,R,ugm-3 (TEOM FDMS)
11-01-2016,04:00,-0.500,R,ugm-3 (TEOM FDMS),1.600,R,ugm-3 (TEOM FDMS),2.100,R,ugm-3 (TEOM FDMS)
11-01-2016,05:00,0.800,R,ugm-3 (TEOM FDMS),5.600,R,ugm-3 (TEOM FDMS),4.700,R,ugm-3 (TEOM FDMS)
11-01-2016,06:00,-1.600,R,ugm-3 (TEOM FDMS),-0.300,R,ugm-3 (TEOM FDMS),1.300,R,ugm-3 (TEOM FDMS)
11-01-2016,07:00,-0.300,R,ugm-3 (TEOM FDMS),0.400,R,ugm-3 (TEOM FDMS),0.700,R,ugm-3 (TEOM FDMS)